Simultaneous Nadir Overpasses (SNOs) Predictions

Prediction of SNOs between LANDSAT-8 and METOP-B Satellite Orbit:

Table of predicted SNOs for the next 14.0 days since TLE Epoch: 4/29/2016
Index Date (LANDSAT-8) Time (LANDSAT-8) Lat,Lon (LANDSAT-8) SZA (LANDSAT-8 ) Date (METOP-B) Time (METOP-B) Lat,Lon (METOP-B) SZA (METOP-B ) Distance(km) Time Diff (sec)
1 05/01/2016 19:28:01 -81.04, 106.17 112.31 05/01/2016 19:27:32 -81.04, 106.20 112.32 0.65 29
2 05/01/2016 20:17:27 81.05, -86.09 67.70 05/01/2016 20:18:11 81.06, -86.01 67.74 1.52 44
3 05/04/2016 15:02:19 -81.04, 172.56 113.12 05/04/2016 15:01:56 -81.04, 172.69 113.12 2.27 23
4 05/04/2016 15:51:45 81.04, -19.74 66.88 05/04/2016 15:52:36 81.04, -19.91 66.89 3.05 51
5 05/07/2016 10:36:36 -81.03,-121.11 113.91 05/07/2016 10:36:20 -81.03,-121.19 113.93 1.54 16
6
